Terug naar catalogus

STARLINK-5535

ActiefCommunicatieSSO
NORAD 56356·PAYLOAD·🇺🇸 United States

Gelanceerd Apr 27, 2023 vanaf Vandenberg Space Force Base

Loading…

Volgende Passages (komende 24 uur)

TLE

VersSource: CelesTrak SupGP

Epoch: Sep 14, 2026, 20:37 UTC

1 56356C 23058AR  26257.85951389  .00066441  00000+0  20627-2 0  2579
2 56356  97.2846 254.6571 0001522  87.9104  70.1127 15.33401957    19

Volg STARLINK-5535 in realtime met AllMySat

Download on the App Store